Date String (YYYY-MM-DD hh:mm:ss) UTC,Instrument flags,Ambient pressure (hPa),Sample flow (lpm),Bypass flow (lpm),Sample temperature (°C),Ambient temperature (°C),ASC tube jacket temperature (°C),LED temperature (°C),Box temperature (°C),Sample RH (%),Span deviation,Mass concentration (μg/m³),Mass concentration (μg/m³),Mass concentration (μg/m³)
DateTimeUTC,F1_M11,P_M11,Q1_M11,Q2_M11,T1_M11,T2_M11,T3_M11,T4_M11,T5_M11,U1_M11,ZSPAN_M11,X0_M11,X2_M11,X1_M11
2021-10-10 10:00:00,,0823.7,4.99,0.00,28.8,27.8,00.0,38.1,30.5,13.0,0000.0,0005.22,0002.66,0001.88
2021-10-10 10:01:00,,0823.7,5.01,0.00,28.8,27.8,00.0,38.1,30.5,13.1,0000.0,0006.72,0002.64,0001.87
2021-10-10 10:02:00,,0823.7,5.00,0.00,28.8,27.7,00.0,38.1,30.5,13.2,0000.0,0007.54,0002.66,0001.84
2021-10-10 10:03:00,,0823.6,5.00,0.00,28.8,27.7,00.0,38.0,30.5,13.2,0000.0,0007.55,0002.64,0001.82
2021-10-10 10:04:00,,0823.6,5.00,0.00,28.7,27.7,00.0,38.0,30.5,13.2,0000.0,0007.54,0002.61,0001.83
2021-10-10 10:05:00,,0823.5,5.01,0.00,28.7,27.6,00.0,38.0,30.4,13.1,0000.0,0007.57,0002.59,0001.81
2021-10-10 10:06:00,,0823.5,5.00,0.00,28.7,27.6,00.0,38.0,30.4,13.1,0000.0,0007.58,0002.59,0001.79
2021-10-10 10:07:00,,0823.5,5.00,0.00,28.7,27.6,00.0,37.9,30.4,13.0,0000.0,0007.44,0002.58,0001.78
2021-10-10 10:08:00,,0823.5,5.02,0.00,28.6,27.6,00.0,37.9,30.3,13.1,0000.0,0007.24,0002.54,0001.77
2021-10-10 10:09:00,,0823.6,5.00,0.00,28.6,27.5,00.0,37.9,30.3,13.1,0000.0,0007.24,0002.49,0001.75
2021-10-10 10:10:00,,0823.6,5.00,0.00,28.5,27.5,00.0,37.9,30.2,13.1,0000.0,0007.21,0002.46,0001.75
2021-10-10 10:11:00,,0823.6,4.99,0.00,28.5,27.5,00.0,37.8,30.2,13.0,0000.0,0007.30,0002.44,0001.74
2021-10-10 10:12:00,,0823.6,5.00,0.00,28.5,27.5,00.0,37.8,30.2,13.0,0000.0,0007.16,0002.44,0001.74
2021-10-10 10:13:00,,0823.6,4.99,0.00,28.5,27.5,00.0,37.8,30.2,13.1,0000.0,0006.20,0002.41,0001.73
2021-10-10 10:14:00,,0823.6,5.00,0.00,28.5,27.5,00.0,37.8,30.2,13.2,0000.0,0006.09,0002.41,0001.74
2021-10-10 10:15:00,,0823.6,5.00,0.00,28.5,27.5,00.0,37.8,30.2,13.2,0000.0,0006.06,0002.38,0001.73
2021-10-10 10:16:00,,0823.7,5.00,0.00,28.5,27.5,00.0,37.7,30.2,13.2,0000.0,0006.03,0002.39,0001.73
2021-10-10 10:17:00,,0823.6,5.00,0.00,28.5,27.5,00.0,37.7,30.2,12.9,0000.0,0005.95,0002.37,0001.76
2021-10-10 10:18:00,,0823.6,5.01,0.00,28.5,27.5,00.0,37.7,30.3,12.9,0000.0,0005.72,0002.34,0001.76
2021-10-10 10:19:00,,0823.6,4.99,0.00,28.5,27.5,00.0,37.7,30.2,12.9,0000.0,0006.09,0002.37,0001.75
2021-10-10 10:20:00,,0823.7,5.00,0.00,28.5,27.5,00.0,37.7,30.3,13.0,0000.0,0006.31,0002.38,0001.75
2021-10-10 10:21:00,,0823.6,5.01,0.00,28.5,27.5,00.0,37.7,30.3,13.0,0000.0,0006.85,0002.39,0001.76
2021-10-10 10:22:00,,0823.6,5.01,0.00,28.5,27.5,00.0,37.7,30.2,13.1,0000.0,0007.18,0002.36,0001.76
2021-10-10 10:23:00,,0823.6,5.00,0.00,28.5,27.5,00.0,37.7,30.2,13.1,0000.0,0006.51,0002.35,0001.76
2021-10-10 10:24:00,,0823.6,5.01,0.00,28.5,27.5,00.0,37.7,30.2,13.1,0000.0,0005.76,0002.31,0001.76
2021-10-10 10:25:00,,0823.6,5.00,0.00,28.5,27.5,00.0,37.7,30.2,13.0,0000.0,0005.76,0002.34,0001.76
2021-10-10 10:26:00,,0823.6,5.01,0.00,28.5,27.5,00.0,37.7,30.2,12.9,0000.0,0005.69,0002.35,0001.77
2021-10-10 10:27:00,,0823.6,5.00,0.00,28.5,27.5,00.0,37.7,30.2,12.9,0000.0,0005.91,0002.34,0001.75
2021-10-10 10:28:00,,0823.6,5.01,0.00,28.5,27.5,00.0,37.7,30.2,12.9,0000.0,0007.04,0002.34,0001.73
2021-10-10 10:29:00,,0823.6,4.98,0.00,28.5,27.5,00.0,37.7,30.2,12.9,0000.0,0008.10,0002.38,0001.73
2021-10-10 10:30:00,,0823.6,5.00,0.00,28.5,27.5,00.0,37.7,30.2,12.8,0000.0,0007.85,0002.36,0001.74
2021-10-10 10:31:00,,0823.5,5.00,0.00,28.5,27.5,00.0,37.7,30.2,12.9,0000.0,0007.75,0002.37,0001.74
2021-10-10 10:32:00,,0823.5,5.00,0.00,28.5,27.5,00.0,37.7,30.2,12.8,0000.0,0007.57,0002.39,0001.72
2021-10-10 10:33:00,,0823.5,5.01,0.00,28.5,27.4,00.0,37.7,30.2,12.6,0000.0,0007.10,0002.42,0001.71
2021-10-10 10:34:00,,0823.5,5.00,0.00,28.5,27.4,00.0,37.7,30.2,12.6,0000.0,0007.12,0002.40,0001.70
2021-10-10 10:35:00,,0823.5,5.00,0.00,28.5,27.4,00.0,37.7,30.2,12.6,0000.0,0007.27,0002.44,0001.69
2021-10-10 10:36:00,,0823.4,4.99,0.00,28.5,27.4,00.0,37.6,30.2,12.6,0000.0,0007.17,0002.37,0001.68
2021-10-10 10:37:00,,0823.4,5.00,0.00,28.5,27.4,00.0,37.6,30.1,12.4,0000.0,0007.11,0002.32,0001.66
2021-10-10 10:38:00,,0823.4,5.01,0.00,28.5,27.4,00.0,37.6,30.2,12.4,0000.0,0007.19,0002.29,0001.64
2021-10-10 10:39:00,,0823.4,5.00,0.00,28.4,27.4,00.0,37.6,30.1,12.4,0000.0,0006.13,0002.24,0001.62
2021-10-10 10:40:00,,0823.4,5.00,0.00,28.4,27.4,00.0,37.6,30.1,12.3,0000.0,0004.20,0002.17,0001.59
2021-10-10 10:41:00,,0823.4,4.99,0.00,28.4,27.3,00.0,37.6,30.1,12.3,0000.0,0003.91,0002.11,0001.57
2021-10-10 10:42:00,,0823.4,5.01,0.00,28.4,27.3,00.0,37.6,30.1,12.3,0000.0,0003.77,0002.05,0001.55
2021-10-10 10:43:00,,0823.4,5.01,0.00,28.4,27.3,00.0,37.6,30.0,12.2,0000.0,0003.69,0002.03,0001.54
2021-10-10 10:44:00,,0823.3,5.00,0.00,28.4,27.3,00.0,37.6,30.1,12.2,0000.0,0003.76,0001.98,0001.53
2021-10-10 10:45:00,,0823.4,5.00,0.00,28.4,27.3,00.0,37.6,30.1,12.6,0000.0,0004.35,0002.00,0001.52
2021-10-10 10:46:00,,0823.4,5.00,0.00,28.4,27.3,00.0,37.6,30.1,12.9,0000.0,0004.30,0001.99,0001.51
2021-10-10 10:47:00,,0823.4,4.99,0.00,28.4,27.3,00.0,37.6,30.1,13.0,0000.0,0005.06,0002.01,0001.52
2021-10-10 10:48:00,,0823.4,5.01,0.00,28.3,27.3,00.0,37.6,30.1,13.0,0000.0,0005.33,0002.04,0001.53
2021-10-10 10:49:00,,0823.4,4.98,0.00,28.3,27.2,00.0,37.6,30.1,13.0,0000.0,0005.62,0002.05,0001.53
2021-10-10 10:50:00,,0823.4,5.00,0.00,28.3,27.2,00.0,37.6,30.0,12.9,0000.0,0005.84,0002.08,0001.53
2021-10-10 10:51:00,,0823.4,5.01,0.00,28.3,27.2,00.0,37.5,30.0,12.3,0000.0,0005.84,0002.06,0001.53
2021-10-10 10:52:00,,0823.5,5.00,0.00,28.3,27.2,00.0,37.5,29.9,12.5,0000.0,0005.86,0002.06,0001.52
2021-10-10 10:53:00,,0823.5,4.99,0.00,28.3,27.2,00.0,37.5,30.0,12.5,0000.0,0005.86,0002.06,0001.51
2021-10-10 10:54:00,,0823.5,5.00,0.00,28.3,27.2,00.0,37.5,30.0,12.6,0000.0,0005.74,0002.04,0001.51
2021-10-10 10:55:00,,0823.5,5.00,0.00,28.3,27.2,00.0,37.5,29.9,12.7,0000.0,0006.16,0002.01,0001.51
2021-10-10 10:56:00,,0823.5,5.01,0.00,28.3,27.2,00.0,37.5,29.9,12.7,0000.0,0006.59,0001.97,0001.50
2021-10-10 10:57:00,,0823.5,5.00,0.00,28.3,27.2,00.0,37.5,30.0,12.7,0000.0,0006.47,0001.95,0001.48
2021-10-10 10:58:00,,0823.5,4.99,0.00,28.3,27.2,00.0,37.5,30.0,12.7,0000.0,0005.88,0001.92,0001.47
2021-10-10 10:59:00,,0823.4,5.00,0.00,28.2,27.2,00.0,37.5,30.0,12.7,0000.0,0005.39,0001.88,0001.45
